Location: Fredericton
(45.9636°N, 66.6431°W)
Time: 13:48:23
(UTC-03:00)

Courier 1B Rocket - All Passes

Search period start: 26 May 2022 00:00
Search period end: 05 June 2022 00:00
Orbit: 920 x 1202 km, 28.2° (Epoch: 25 May)

Date Brightness Start Highest point End Pass type
(mag) Time Alt. Az. Time Alt. Az. Time Alt. Az.
26 May - 02:08:48 10° SSW 02:11:47 14° S 02:14:44 10° SE visible
26 May - 04:00:48 10° SW 04:03:57 14° S 04:07:04 10° SSE visible
27 May - 01:08:45 10° S 01:11:07 12° SSE 01:13:28 10° SE night (unlit)
27 May - 02:59:52 10° SW 03:03:18 15° S 03:06:40 10° SSE visible
27 May - 04:54:18 10° SSW 04:55:24 10° SSW 04:56:31 10° S visible
28 May - 00:09:59 10° SSE 00:10:27 10° SSE 00:10:56 10° SSE night (unlit)
28 May - 01:59:07 10° SSW 02:02:38 15° S 02:06:04 10° SE visible
28 May - 03:52:10 10° SW 03:54:47 13° SSW 03:57:23 10° SSE visible
29 May - 00:58:33 10° SSW 01:01:57 14° S 01:05:16 10° SE night (unlit)
29 May - 02:50:49 10° SW 02:54:08 15° S 02:57:24 10° SSE visible
29 May - 23:58:15 10° SSW 00:01:15 13° SSE 00:04:09 10° SE night (unlit)
30 May - 01:49:44 10° SW 01:53:28 16° S 01:57:06 10° SSE night (unlit)
30 May - 03:44:18 10° SSW 03:45:35 11° SSW 03:46:52 10° S visible
30 May - 22:58:34 10° S 23:00:32 11° SSE 23:02:28 10° SSE visible
31 May - 00:48:50 10° SSW 00:52:46 16° S 00:56:34 10° SE night (unlit)
31 May - 02:42:04 10° SW 02:44:58 13° SSW 02:47:48 10° SSE night (unlit)
31 May - 23:48:09 10° SSW 23:52:02 16° S 23:55:48 10° SE visible
01 Jun - 01:40:37 10° SW 01:44:18 15° S 01:47:52 10° SSE night (unlit)
01 Jun - 22:47:42 10° SSW 22:51:17 14° SSE 22:54:46 10° SE visible
02 Jun - 00:39:26 10° SW 00:43:35 17° S 00:47:35 10° SE visible
02 Jun - 02:33:55 10° SW 02:35:44 11° SSW 02:37:33 10° S night (unlit)
02 Jun - 21:47:42 10° S 21:50:31 12° SSE 21:53:17 10° SE visible
02 Jun - 23:38:26 10° SW 23:42:50 17° S 23:47:04 10° SE visible
03 Jun - 01:31:46 10° SW 01:35:05 14° SSW 01:38:18 10° SSE night (unlit)
03 Jun - 22:37:40 10° SSW 22:42:03 17° S 22:46:17 10° SE visible
04 Jun - 00:30:15 10° SW 00:34:22 16° S 00:38:20 10° SSE visible
04 Jun - 21:37:08 10° SSW 21:41:15 16° SSE 21:45:14 10° SE daylight
04 Jun - 23:29:01 10° SW 23:33:36 18° S 23:38:02 10° SE visible
